| time (UTC) | temp C | wind direction | speed KPH | gust KPH | rain 1hr cm | rain 24hr cm | rain mn cm | humidity % | barometer mb |
| 20260506233009 | 15 | 207 | 3.2 | 9.7 | 0.00 | 0.00 | 0.00 | 76 | 1017.3 |
| 20260506231506 | 14 | 219 | 1.6 | 14.5 | 0.00 | 0.00 | 0.00 | 77 | 1017.3 |
| 20260506230005 | 14 | 232 | 0.0 | 8.0 | 0.00 | 0.00 | 0.00 | 77 | 1017.4 |
| 20260506224505 | 14 | 266 | 1.6 | 9.7 | 0.00 | 0.00 | 0.00 | 78 | 1017.5 |
| 20260506223004 | 14 | 219 | 3.2 | 12.9 | 0.00 | 0.00 | 0.00 | 78 | 1017.5 |
| 20260506221505 | 14 | 257 | 3.2 | 12.9 | 0.00 | 0.00 | 0.00 | 77 | 1017.6 |
| 20260506220002 | 13 | 246 | 1.6 | 12.9 | 0.00 | 0.00 | 0.00 | 79 | 1017.6 |
| 20260506214603 | 13 | 244 | 3.2 | 12.9 | 0.00 | 0.00 | 0.00 | 79 | 1017.5 |
| 20260506213101 | 13 | 259 | 0.0 | 11.3 | 0.00 | 0.00 | 0.00 | 80 | 1017.6 |
| 20260506211600 | 13 | 242 | 3.2 | 6.4 | 0.00 | 0.00 | 0.00 | 79 | 1017.8 |
| 20260506210058 | 13 | 302 | 1.6 | 9.7 | 0.00 | 0.00 | 0.00 | 79 | 1017.7 |
| 20260506204558 | 13 | 261 | 1.6 | 12.9 | 0.00 | 0.00 | 0.00 | 79 | 1017.6 |
| 20260506203057 | 13 | 252 | 3.2 | 8.0 | 0.00 | 0.00 | 0.00 | 79 | 1017.7 |
| 20260506201554 | 13 | 170 | 4.8 | 14.5 | 0.00 | 0.00 | 0.00 | 78 | 1017.6 |
| 20260506200053 | 13 | 202 | 1.6 | 12.9 | 0.00 | 0.00 | 0.00 | 79 | 1017.5 |
| 20260506194552 | 13 | 250 | 1.6 | 12.9 | 0.00 | 0.00 | 0.00 | 79 | 1017.4 |
| 20260506193053 | 13 | 266 | 4.8 | 14.5 | 0.00 | 0.00 | 0.00 | 80 | 1017.5 |
| 20260506191548 | 12 | 197 | 1.6 | 6.4 | 0.00 | 0.00 | 0.00 | 81 | 1017.5 |
| 20260506190047 | 12 | 250 | 1.6 | 11.3 | 0.00 | 0.00 | 0.00 | 81 | 1017.5 |
| 20260506184545 | 12 | 215 | 1.6 | 16.1 | 0.00 | 0.00 | 0.00 | 80 | 1017.4 |
| 20260506183044 | 12 | 257 | 3.2 | 9.7 | 0.00 | 0.00 | 0.00 | 80 | 1017.3 |
| 20260506181556 | 12 | 232 | 1.6 | 16.1 | 0.00 | 0.00 | 0.00 | 80 | 1017.4 |
| 20260506180042 | 12 | 289 | 3.2 | 17.7 | 0.00 | 0.00 | 0.00 | 79 | 1017.4 |
| 20260506174539 | 12 | 257 | 1.6 | 11.3 | 0.00 | 0.00 | 0.00 | 80 | 1017.1 |
| 20260506173103 | 12 | 231 | 0.0 | 6.4 | 0.00 | 0.00 | 0.00 | 83 | 1017.1 |
| 20260506171541 | 12 | 235 | 1.6 | 4.8 | 0.00 | 0.00 | 0.00 | 83 | 1017.0 |
| 20260506170048 | 12 | 222 | 0.0 | 4.8 | 0.00 | 0.00 | 0.00 | 83 | 1017.0 |
| 20260506164533 | 12 | 178 | 0.0 | 6.4 | 0.00 | 0.00 | 0.00 | 84 | 1017.1 |
| 20260506163034 | 11 | 245 | 3.2 | 12.9 | 0.00 | 0.00 | 0.00 | 84 | 1017.0 |
| 20260506161530 | 11 | 217 | 0.0 | 4.8 | 0.00 | 0.00 | 0.00 | 85 | 1016.9 |
| 20260506160029 | 11 | 245 | 0.0 | 6.4 | 0.00 | 0.00 | 0.00 | 86 | 1016.8 |
| 20260506154527 | 11 | 257 | 0.0 | 8.0 | 0.00 | 0.00 | 0.00 | 88 | 1016.7 |
| 20260506153027 | 11 | 250 | 1.6 | 4.8 | 0.00 | 0.00 | 0.00 | 89 | 1016.6 |
| 20260506151528 | 11 | 238 | 0.0 | 4.8 | 0.00 | 0.00 | 0.00 | 90 | 1016.6 |
| 20260506150025 | 11 | 223 | 0.0 | 4.8 | 0.00 | 0.00 | 0.00 | 90 | 1016.7 |
| 20260506144523 | 11 | 210 | 0.0 | 1.6 | 0.00 | 0.00 | 0.00 | 90 | 1016.7 |
| 20260506143026 | 11 | 225 | 0.0 | 4.8 | 0.00 | 0.00 | 0.00 | 90 | 1016.4 |
| 20260506141521 | 11 | 228 | 1.6 | 11.3 | 0.00 | 0.00 | 0.00 | 90 | 1016.3 |
| 20260506140021 | 11 | 224 | 0.0 | 3.2 | 0.00 | 0.00 | 0.00 | 90 | 1016.2 |
| 20260506134517 | 11 | 227 | 0.0 | 3.2 | 0.00 | 0.00 | 0.00 | 90 | 1016.1 |
| 20260506133017 | 11 | 227 | 0.0 | 4.8 | 0.00 | 0.00 | 0.00 | 89 | 1016.1 |
| 20260506131516 | 11 | 232 | 1.6 | 4.8 | 0.00 | 0.00 | 0.00 | 88 | 1016.0 |
| 20260506130015 | 11 | 257 | 0.0 | 3.2 | 0.00 | 0.00 | 0.00 | 88 | 1016.0 |
| 20260506124513 | 11 | 240 | 0.0 | 6.4 | 0.00 | 0.00 | 0.00 | 88 | 1015.7 |
| 20260506123012 | 11 | 264 | 1.6 | 8.0 | 0.00 | 0.00 | 0.00 | 88 | 1015.7 |
| 20260506121511 | 11 | 232 | 1.6 | 8.0 | 0.00 | 0.00 | 0.00 | 88 | 1015.7 |
| 20260506120011 | 11 | 222 | 1.6 | 9.7 | 0.00 | 0.00 | 0.00 | 88 | 1015.6 |
| 20260506114509 | 11 | 261 | 3.2 | 6.4 | 0.00 | 0.00 | 0.00 | 88 | 1015.5 |
| 20260506113008 | 11 | 201 | 0.0 | 4.8 | 0.00 | 0.00 | 0.00 | 88 | 1015.4 |
| 20260506111507 | 11 | 267 | 1.6 | 4.8 | 0.00 | 0.00 | 0.00 | 88 | 1015.3 |
| 20260506110005 | 11 | 249 | 0.0 | 9.7 | 0.00 | 0.00 | 0.00 | 87 | 1015.2 |
| 20260506104508 | 11 | 288 | 0.0 | 4.8 | 0.00 | 0.00 | 0.00 | 87 | 1015.0 |
| 20260506103005 | 11 | 269 | 0.0 | 3.2 | 0.00 | 0.00 | 0.00 | 87 | 1014.9 |
| 20260506101506 | 11 | 242 | 1.6 | 8.0 | 0.00 | 0.00 | 0.00 | 87 | 1015.0 |
| 20260506100100 | 11 | 240 | 1.6 | 8.0 | 0.00 | 0.00 | 0.00 | 87 | 1014.9 |
| 20260506094600 | 11 | 232 | 0.0 | 3.2 | 0.00 | 0.00 | 0.00 | 87 | 1014.7 |
| 20260506093057 | 11 | 215 | 1.6 | 4.8 | 0.00 | 0.00 | 0.00 | 86 | 1014.7 |
| 20260506091559 | 11 | 254 | 0.0 | 4.8 | 0.00 | 0.00 | 0.00 | 86 | 1014.6 |
| 20260506090056 | 11 | 279 | 0.0 | 1.6 | 0.00 | 0.00 | 0.00 | 86 | 1014.6 |
| 20260506084555 | 11 | 288 | 1.6 | 11.3 | 0.00 | 0.00 | 0.00 | 86 | 1014.5 |
| 20260506083053 | 11 | 158 | 0.0 | 6.4 | 0.00 | 0.00 | 0.00 | 86 | 1014.5 |
| 20260506081558 | 11 | 200 | 0.0 | 4.8 | 0.00 | 0.00 | 0.00 | 86 | 1014.2 |
| 20260506073049 | 12 | 236 | 0.0 | 8.0 | 0.00 | 0.00 | 0.00 | 86 | 1013.9 |
| 20260506071544 | 12 | 297 | 0.0 | 9.7 | 0.00 | 0.00 | 0.00 | 85 | 1013.8 |
| 20260506061538 | 11 | 260 | 0.0 | 3.2 | 0.00 | 0.00 | 0.00 | 85 | 1013.4 |
| 20260506044535 | 12 | 226 | 0.0 | 0.0 | 0.00 | 0.00 | 0.00 | 83 | 1013.0 |
| 20260506043030 | 13 | 229 | 0.0 | 0.0 | 0.00 | 0.00 | 0.00 | 82 | 1013.0 |
| 20260506041529 | 13 | 215 | 0.0 | 1.6 | 0.00 | 0.00 | 0.00 | 81 | 1012.8 |
| 20260506040041 | 13 | 238 | 0.0 | 0.0 | 0.00 | 0.00 | 0.00 | 79 | 1012.7 |
| 20260506034528 | 14 | 247 | 1.6 | 4.8 | 0.00 | 0.00 | 0.00 | 78 | 1012.5 |
| 20260506033028 | 15 | 178 | 1.6 | 4.8 | 0.00 | 0.00 | 0.00 | 77 | 1012.2 |
| 20260506031527 | 15 | 225 | 3.2 | 6.4 | 0.00 | 0.00 | 0.00 | 75 | 1012.2 |
| 20260506030026 | 16 | 242 | 1.6 | 6.4 | 0.00 | 0.00 | 0.00 | 74 | 1011.9 |
| 20260506024535 | 16 | 246 | 1.6 | 11.3 | 0.00 | 0.00 | 0.00 | 73 | 1011.9 |
| 20260506023025 | 17 | 273 | 3.2 | 8.0 | 0.00 | 0.00 | 0.00 | 71 | 1011.9 |
| 20260506021541 | 17 | 234 | 1.6 | 12.9 | 0.00 | 0.00 | 0.00 | 70 | 1011.8 |
| 20260506020024 | 17 | 261 | 0.0 | 12.9 | 0.00 | 0.00 | 0.00 | 70 | 1011.7 |
| 20260506014526 | 17 | 217 | 1.6 | 8.0 | 0.00 | 0.00 | 0.00 | 70 | 1011.7 |
| 20260506013024 | 17 | 214 | 3.2 | 12.9 | 0.00 | 0.00 | 0.00 | 70 | 1011.6 |
| 20260506011527 | 17 | 231 | 0.0 | 11.3 | 0.00 | 0.00 | 0.00 | 70 | 1011.6 |
| 20260506010022 | 18 | 223 | 1.6 | 12.9 | 0.00 | 0.00 | 0.00 | 70 | 1011.6 |
| 20260506004520 | 18 | 240 | 3.2 | 8.0 | 0.00 | 0.00 | 0.00 | 68 | 1011.7 |
| 20260506003020 | 18 | 235 | 3.2 | 17.7 | 0.00 | 0.00 | 0.00 | 68 | 1011.8 |
| 20260506001519 | 19 | 182 | 4.8 | 11.3 | 0.00 | 0.00 | 0.00 | 66 | 1011.7 |
| 20260506000018 | 19 | 274 | 0.0 | 4.8 | 0.00 | 0.00 | 0.00 | 66 | 1011.8 |
| 20260505234517 | 19 | 255 | 1.6 | 9.7 | 0.00 | 0.00 | 0.00 | 66 | 1012.0 |